,,,PA_Meas_PMT16A,,PR_Meas_QMR101_102,,RH_Meas_QMH101,,SR_Meas_QMS101,,TA_Meas_QMH101,,GenWind,,GenWind,
date,time,status,PA,status,PR,status,RH,status,SR,status,TA,status,DirAvg,status,SpdAvg,
2009-08-19, 00:00:04,VALID,1006.89,VALID,0,VALID,93.4996,VALID,0,VALID,24.015,VALID,65,VALID,0,
2009-08-19, 00:01:04,VALID,1006.87,VALID,0,VALID,93.4309,VALID,0,VALID,24.015,VALID,65,VALID,0,
2009-08-19, 00:02:04,VALID,1006.84,VALID,0,VALID,93.3775,VALID,0,VALID,24.0345,VALID,64,VALID,0,
2009-08-19, 00:03:04,VALID,1006.85,VALID,0,VALID,93.3317,VALID,0,VALID,24.0557,VALID,64,VALID,0,
2009-08-19, 00:04:04,VALID,1006.83,VALID,0,VALID,93.2859,VALID,0,VALID,24.0734,VALID,64,VALID,0,
2009-08-19, 00:05:04,VALID,1006.81,VALID,0,VALID,93.1944,VALID,0,VALID,24.0929,VALID,64,VALID,0,
2009-08-19, 00:06:04,VALID,1006.82,VALID,0,VALID,93.1029,VALID,0,VALID,24.0929,VALID,64,VALID,0,
2009-08-19, 00:07:04,VALID,1006.81,VALID,0,VALID,93.0723,VALID,0,VALID,24.1123,VALID,62,VALID,0,
2009-08-19, 00:08:04,VALID,1006.78,VALID,0,VALID,93.08,VALID,0,VALID,24.1318,VALID,62,VALID,0,
2009-08-19, 00:09:04,VALID,1006.77,VALID,0,VALID,93.0342,VALID,0,VALID,24.1123,VALID,30,VALID,0,
2009-08-19, 00:10:04,VALID,1006.77,VALID,0,VALID,93.0189,VALID,0,VALID,24.1123,VALID,19,VALID,0,
2009-08-19, 00:11:04,VALID,1006.78,VALID,0,VALID,93.0266,VALID,0,VALID,24.1123,VALID,19,VALID,0,
2009-08-19, 00:12:04,VALID,1006.77,VALID,0,VALID,93.08,VALID,0,VALID,24.1531,VALID,19,VALID,0,
2009-08-19, 00:13:04,VALID,1006.77,VALID,0,VALID,93.1334,VALID,0,VALID,24.1087,VALID,19,VALID,0,
2009-08-19, 00:14:04,VALID,1006.76,VALID,0,VALID,93.1791,VALID,0,VALID,24.1318,VALID,19,VALID,0,
2009-08-19, 00:15:04,VALID,1006.79,VALID,0,VALID,93.1944,VALID,0,VALID,24.1105,VALID,19,VALID,0,
2009-08-19, 00:16:04,VALID,1006.81,VALID,0,VALID,93.2631,VALID,0,VALID,24.091,VALID,19,VALID,0,
2009-08-19, 00:17:04,VALID,1006.79,VALID,0,VALID,93.3088,VALID,0,VALID,24.091,VALID,19,VALID,0,
2009-08-19, 00:18:04,VALID,1006.79,VALID,0,VALID,93.3546,VALID,0,VALID,24.0716,VALID,19,VALID,0,
2009-08-19, 00:19:04,VALID,1006.79,VALID,0,VALID,93.4156,VALID,0,VALID,24.0716,VALID,19,VALID,0,
2009-08-19, 00:20:04,VALID,1006.77,VALID,0,VALID,93.4462,VALID,0,VALID,24.0734,VALID,19,VALID,0,
2009-08-19, 00:21:04,VALID,1006.76,VALID,0,VALID,93.4996,VALID,0,VALID,24.0521,VALID,19,VALID,0,
2009-08-19, 00:22:04,VALID,1006.75,VALID,0,VALID,93.5682,VALID,0.100563,VALID,24.0539,VALID,19,VALID,0,
2009-08-19, 00:23:04,VALID,1006.77,VALID,0,VALID,93.6292,VALID,0,VALID,24.0326,VALID,19,VALID,0,
2009-08-19, 00:24:04,VALID,1006.74,VALID,0,VALID,93.6826,VALID,0,VALID,24.0539,VALID,19,VALID,0,
2009-08-19, 00:25:04,VALID,1006.76,VALID,0,VALID,93.7055,VALID,0.100563,VALID,24.0326,VALID,19,VALID,0,
2009-08-19, 00:26:04,VALID,1006.75,VALID,0,VALID,93.6903,VALID,0,VALID,24.0345,VALID,19,VALID,0,
2009-08-19, 00:27:04,VALID,1006.77,VALID,0,VALID,93.7055,VALID,0.100563,VALID,23.9937,VALID,19,VALID,0,
2009-08-19, 00:28:04,VALID,1006.73,VALID,0,VALID,93.6903,VALID,0.100563,VALID,23.9955,VALID,19,VALID,0,
2009-08-19, 00:29:04,VALID,1006.73,VALID,0,VALID,93.7361,VALID,0,VALID,23.9937,VALID,19,VALID,0,
2009-08-19, 00:30:04,VALID,1006.71,VALID,0,VALID,93.7361,VALID,0,VALID,23.9955,VALID,19,VALID,0,
2009-08-19, 00:31:04,VALID,1006.7,VALID,0,VALID,93.6903,VALID,0,VALID,23.9742,VALID,19,VALID,0,
2009-08-19, 00:32:04,VALID,1006.67,VALID,0,VALID,93.675,VALID,0,VALID,23.9937,VALID,19,VALID,0,
2009-08-19, 00:33:04,VALID,1006.66,VALID,0,VALID,93.6445,VALID,0,VALID,24.015,VALID,19,VALID,0,
2009-08-19, 00:34:04,VALID,1006.63,VALID,0,VALID,93.6216,VALID,0.100563,VALID,23.9724,VALID,19,VALID,0,
2009-08-19, 00:35:04,VALID,1006.62,VALID,0,VALID,93.6292,VALID,0.100563,VALID,23.9937,VALID,19,VALID,0,
2009-08-19, 00:36:04,VALID,1006.62,VALID,0,VALID,93.6598,VALID,0,VALID,23.9955,VALID,19,VALID,0,
2009-08-19, 00:37:04,VALID,1006.58,VALID,0,VALID,93.6521,VALID,0,VALID,23.9548,VALID,19,VALID,0,
2009-08-19, 00:38:04,VALID,1006.6,VALID,0,VALID,93.675,VALID,0,VALID,23.9742,VALID,19,VALID,0,
2009-08-19, 00:39:04,VALID,1006.62,VALID,0,VALID,93.6903,VALID,0,VALID,23.9742,VALID,19,VALID,0,
2009-08-19, 00:40:04,VALID,1006.61,VALID,0,VALID,93.675,VALID,0,VALID,23.9742,VALID,19,VALID,0,
2009-08-19, 00:41:04,VALID,1006.6,VALID,0,VALID,93.6826,VALID,0.100563,VALID,23.9742,VALID,19,VALID,0,
2009-08-19, 00:42:04,VALID,1006.56,VALID,0,VALID,93.6979,VALID,0.100563,VALID,23.9724,VALID,19,VALID,0,
2009-08-19, 00:43:04,VALID,1006.6,VALID,0,VALID,93.6826,VALID,0,VALID,23.9955,VALID,19,VALID,0,
2009-08-19, 00:44:04,VALID,1006.58,VALID,0,VALID,93.6979,VALID,0,VALID,23.9955,VALID,19,VALID,0,
2009-08-19, 00:45:04,VALID,1006.56,VALID,0,VALID,93.6979,VALID,0,VALID,23.9955,VALID,19,VALID,0,
2009-08-19, 00:46:04,VALID,1006.54,VALID,0,VALID,93.675,VALID,0,VALID,24.0168,VALID,19,VALID,0,
2009-08-19, 00:47:04,VALID,1006.53,VALID,0,VALID,93.6979,VALID,0,VALID,24.015,VALID,19,VALID,0,
2009-08-19, 00:48:04,VALID,1006.5,VALID,0,VALID,93.6826,VALID,0,VALID,23.9955,VALID,19,VALID,0,
2009-08-19, 00:49:04,VALID,1006.47,VALID,0,VALID,93.7284,VALID,0,VALID,23.9955,VALID,19,VALID,0,
2009-08-19, 00:50:04,VALID,1006.46,VALID,0,VALID,93.7513,VALID,0,VALID,23.9742,VALID,19,VALID,0,
2009-08-19, 00:51:04,VALID,1006.46,VALID,0,VALID,93.7971,VALID,0,VALID,23.9761,VALID,19,VALID,0,
2009-08-19, 00:52:04,VALID,1006.46,VALID,0,VALID,93.8429,VALID,0,VALID,23.9761,VALID,19,VALID,0,
2009-08-19, 00:53:04,VALID,1006.42,VALID,0,VALID,93.8581,VALID,0,VALID,23.9742,VALID,19,VALID,0,
2009-08-19, 00:54:04,VALID,1006.46,VALID,0,VALID,93.881,VALID,0,VALID,23.9353,VALID,19,VALID,0,
2009-08-19, 00:55:04,VALID,1006.43,VALID,0,VALID,93.9115,VALID,0,VALID,23.9371,VALID,19,VALID,0,
2009-08-19, 00:56:04,VALID,1006.46,VALID,0,VALID,93.942,VALID,0,VALID,23.9371,VALID,19,VALID,0,
2009-08-19, 00:57:04,VALID,1006.47,VALID,0,VALID,93.9802,VALID,0,VALID,23.9371,VALID,19,VALID,0,
2009-08-19, 00:58:04,VALID,1006.48,VALID,0,VALID,94.0412,VALID,0,VALID,23.9371,VALID,19,VALID,0,
2009-08-19, 00:59:04,VALID,1006.49,VALID,0,VALID,94.0412,VALID,0,VALID,23.9177,VALID,19,VALID,0,
2009-08-19, 01:00:04,VALID,1006.5,VALID,0,VALID,94.087,VALID,0,VALID,23.9177,VALID,7,VALID,0,
2009-08-19, 01:01:04,VALID,1006.47,VALID,0,VALID,94.1328,VALID,0,VALID,23.9371,VALID,4,VALID,0,
2009-08-19, 01:02:04,VALID,1006.46,VALID,0,VALID,94.1709,VALID,0,VALID,23.9566,VALID,4,VALID,0,
2009-08-19, 01:03:04,VALID,1006.47,VALID,0,VALID,94.2014,VALID,0,VALID,23.9761,VALID,4,VALID,0,
2009-08-19, 01:04:04,VALID,1006.45,VALID,0,VALID,94.2243,VALID,0,VALID,23.9742,VALID,4,VALID,0,
2009-08-19, 01:05:04,VALID,1006.45,VALID,0,VALID,94.2014,VALID,0,VALID,23.9937,VALID,4,VALID,0,
2009-08-19, 01:06:04,VALID,1006.46,VALID,0,VALID,94.1938,VALID,0,VALID,24.015,VALID,4,VALID,0,
2009-08-19, 01:07:04,VALID,1006.45,VALID,0,VALID,94.1862,VALID,0,VALID,24.015,VALID,4,VALID,0,
2009-08-19, 01:08:04,VALID,1006.44,VALID,0,VALID,94.2014,VALID,0,VALID,24.0132,VALID,4,VALID,0,
2009-08-19, 01:09:04,VALID,1006.45,VALID,0,VALID,94.1938,VALID,0,VALID,24.0132,VALID,4,VALID,0,
2009-08-19, 01:10:04,VALID,1006.46,VALID,0,VALID,94.1785,VALID,0,VALID,24.0132,VALID,4,VALID,0,
2009-08-19, 01:11:04,VALID,1006.46,VALID,0,VALID,94.1785,VALID,0,VALID,23.9937,VALID,4,VALID,0,
2009-08-19, 01:12:04,VALID,1006.46,VALID,0,VALID,94.1709,VALID,0,VALID,23.9937,VALID,4,VALID,0,
2009-08-19, 01:13:04,VALID,1006.45,VALID,0,VALID,94.1862,VALID,0,VALID,24.015,VALID,4,VALID,0,
2009-08-19, 01:14:04,VALID,1006.47,VALID,0,VALID,94.209,VALID,0,VALID,23.9742,VALID,4,VALID,0,
2009-08-19, 01:15:04,VALID,1006.45,VALID,0,VALID,94.1938,VALID,0,VALID,23.9955,VALID,4,VALID,0,
2009-08-19, 01:16:04,VALID,1006.48,VALID,0,VALID,94.209,VALID,0,VALID,23.9955,VALID,4,VALID,0,
2009-08-19, 01:17:04,VALID,1006.48,VALID,0,VALID,94.2319,VALID,0,VALID,23.9548,VALID,4,VALID,0,
2009-08-19, 01:18:04,VALID,1006.49,VALID,0,VALID,94.2319,VALID,0,VALID,23.9761,VALID,4,VALID,0,
2009-08-19, 01:19:04,VALID,1006.5,VALID,0,VALID,94.2472,VALID,0,VALID,23.9761,VALID,4,VALID,0,
2009-08-19, 01:20:05,VALID,1006.51,VALID,0,VALID,94.2548,VALID,0,VALID,23.9742,VALID,4,VALID,0,
2009-08-19, 01:21:05,VALID,1006.51,VALID,0,VALID,94.2853,VALID,0,VALID,23.9742,VALID,4,VALID,0,
2009-08-19, 01:22:05,VALID,1006.47,VALID,0,VALID,94.3235,VALID,0,VALID,23.9937,VALID,4,VALID,0,
2009-08-19, 01:23:05,VALID,1006.46,VALID,0,VALID,94.3235,VALID,0,VALID,23.9955,VALID,4,VALID,0,
2009-08-19, 01:24:05,VALID,1006.43,VALID,0,VALID,94.3464,VALID,0,VALID,24.015,VALID,4,VALID,0,
2009-08-19, 01:25:05,VALID,1006.43,VALID,0,VALID,94.3616,VALID,0,VALID,24.015,VALID,4,VALID,0,
2009-08-19, 01:26:05,VALID,1006.39,VALID,0,VALID,94.3692,VALID,0,VALID,23.9937,VALID,4,VALID,0,
2009-08-19, 01:27:05,VALID,1006.39,VALID,0,VALID,94.3692,VALID,0,VALID,24.015,VALID,4,VALID,0,
2009-08-19, 01:28:05,VALID,1006.4,VALID,0,VALID,94.3692,VALID,0,VALID,23.9742,VALID,4,VALID,0,
2009-08-19, 01:29:05,VALID,1006.36,VALID,0,VALID,94.3464,VALID,0,VALID,23.9742,VALID,4,VALID,0,
2009-08-19, 01:30:05,VALID,1006.34,VALID,0,VALID,94.3692,VALID,0,VALID,23.9955,VALID,4,VALID,0,
2009-08-19, 01:31:05,VALID,1006.36,VALID,0,VALID,94.3692,VALID,0,VALID,23.9955,VALID,4,VALID,0,
2009-08-19, 01:32:05,VALID,1006.38,VALID,0,VALID,94.4074,VALID,0,VALID,23.9955,VALID,4,VALID,0,
2009-08-19, 01:33:05,VALID,1006.34,VALID,0,VALID,94.4074,VALID,0,VALID,23.9955,VALID,4,VALID,0,
2009-08-19, 01:34:05,VALID,1006.34,VALID,0,VALID,94.4074,VALID,0,VALID,23.9955,VALID,4,VALID,0,
2009-08-19, 01:35:05,VALID,1006.33,VALID,0,VALID,94.3921,VALID,0,VALID,23.9548,VALID,4,VALID,0,
2009-08-19, 01:36:05,VALID,1006.32,VALID,0,VALID,94.3998,VALID,0,VALID,23.9955,VALID,3,VALID,0,
2009-08-19, 01:37:05,VALID,1006.3,VALID,0,VALID,94.4074,VALID,0,VALID,23.9761,VALID,1,VALID,0.419922,
2009-08-19, 01:38:05,VALID,1006.31,VALID,0,VALID,94.4074,VALID,0,VALID,23.9742,VALID,359,VALID,0.527734,
2009-08-19, 01:39:05,VALID,1006.26,VALID,0,VALID,94.4303,VALID,0,VALID,23.9973,VALID,347,VALID,0.645703,
2009-08-19, 01:40:05,VALID,1006.29,VALID,0,VALID,94.4379,VALID,0,VALID,23.9955,VALID,349,VALID,0.639844,
2009-08-19, 01:41:05,VALID,1006.25,VALID,0,VALID,94.4684,VALID,0,VALID,23.9955,VALID,349,VALID,0.516406,
2009-08-19, 01:42:05,VALID,1006.24,VALID,0,VALID,94.4455,VALID,0,VALID,23.9742,VALID,349,VALID,0.441016,
2009-08-19, 01:43:05,VALID,1006.21,VALID,0,VALID,94.4532,VALID,0,VALID,23.9742,VALID,349,VALID,0.507031,
2009-08-19, 01:44:05,VALID,1006.19,VALID,0,VALID,94.4761,VALID,0,VALID,23.9937,VALID,349,VALID,0.320703,
2009-08-19, 01:45:05,VALID,1006.2,VALID,0,VALID,94.4761,VALID,0,VALID,23.9937,VALID,349,VALID,0.214062,
2009-08-19, 01:46:05,VALID,1006.17,VALID,0,VALID,94.4761,VALID,0,VALID,24.015,VALID,349,VALID,0.182422,
2009-08-19, 01:47:05,VALID,1006.15,VALID,0,VALID,94.4608,VALID,0,VALID,24.0345,VALID,349,VALID,0.249219,
2009-08-19, 01:48:05,VALID,1006.1,VALID,0,VALID,94.4455,VALID,0,VALID,23.9742,VALID,349,VALID,0.258203,
2009-08-19, 01:49:05,VALID,1006.1,VALID,0,VALID,94.4608,VALID,0,VALID,24.015,VALID,349,VALID,0.171875,
2009-08-19, 01:50:05,VALID,1006.09,VALID,0,VALID,94.4455,VALID,0,VALID,24.0132,VALID,349,VALID,0,
2009-08-19, 01:51:05,VALID,1006.07,VALID,0,VALID,94.4455,VALID,0,VALID,23.9937,VALID,349,VALID,0.0605469,
2009-08-19, 01:52:05,VALID,1006.06,VALID,0,VALID,94.4532,VALID,0,VALID,24.015,VALID,349,VALID,0.308984,
2009-08-19, 01:53:05,VALID,1006.06,VALID,0,VALID,94.4532,VALID,0,VALID,23.9955,VALID,349,VALID,0.251953,
2009-08-19, 01:54:05,VALID,1006.02,VALID,0,VALID,94.4303,VALID,0,VALID,23.9955,VALID,349,VALID,0.272266,
2009-08-19, 01:55:05,VALID,1006.03,VALID,0,VALID,94.4455,VALID,0,VALID,23.9761,VALID,349,VALID,0.211328,
2009-08-19, 01:56:05,VALID,1006.03,VALID,0,VALID,94.4532,VALID,0,VALID,23.9761,VALID,349,VALID,0.144922,
2009-08-19, 01:57:05,VALID,1006.02,VALID,0,VALID,94.5066,VALID,0,VALID,23.9937,VALID,349,VALID,0,
2009-08-19, 01:58:05,VALID,1006.02,VALID,0,VALID,94.5066,VALID,0,VALID,24.0168,VALID,349,VALID,0.276172,
2009-08-19, 01:59:05,VALID,1006.01,VALID,0,VALID,94.5218,VALID,0,VALID,24.015,VALID,349,VALID,0.20625,
2009-08-19, 02:00:05,VALID,1005.99,VALID,0,VALID,94.5218,VALID,0,VALID,24.0345,VALID,349,VALID,0.244531,
2009-08-19, 02:01:05,VALID,1005.96,VALID,0,VALID,94.5295,VALID,0,VALID,24.0132,VALID,349,VALID,0,
2009-08-19, 02:02:05,VALID,1005.97,VALID,0,VALID,94.4989,VALID,0,VALID,24.015,VALID,349,VALID,0,
2009-08-19, 02:03:05,VALID,1005.94,VALID,0,VALID,94.4837,VALID,0,VALID,23.9742,VALID,349,VALID,0.510938,
2009-08-19, 02:04:05,VALID,1005.92,VALID,0,VALID,94.4761,VALID,0,VALID,23.9955,VALID,349,VALID,0.629687,
2009-08-19, 02:05:05,VALID,1005.9,VALID,0,VALID,94.4989,VALID,0,VALID,23.9955,VALID,350,VALID,0.623828,
2009-08-19, 02:06:05,VALID,1005.87,VALID,0,VALID,94.4837,VALID,0,VALID,23.9761,VALID,350,VALID,0.644141,
2009-08-19, 02:07:05,VALID,1005.87,VALID,0,VALID,94.5066,VALID,0,VALID,23.9566,VALID,350,VALID,0.559766,
2009-08-19, 02:08:05,VALID,1005.86,VALID,0,VALID,94.4837,VALID,0,VALID,23.9159,VALID,350,VALID,0.480078,
2009-08-19, 02:09:05,VALID,1005.81,VALID,0,VALID,94.5142,VALID,0,VALID,23.9371,VALID,350,VALID,0.492578,
2009-08-19, 02:10:05,VALID,1005.8,VALID,0,VALID,94.5218,VALID,0,VALID,23.9177,VALID,350,VALID,0.525,
2009-08-19, 02:11:05,VALID,1005.78,VALID,0,VALID,94.5447,VALID,0,VALID,23.8964,VALID,350,VALID,0.498828,
2009-08-19, 02:12:05,VALID,1005.74,VALID,0,VALID,94.5371,VALID,0,VALID,23.8769,VALID,350,VALID,0.523828,
2009-08-19, 02:13:05,VALID,1005.72,VALID,0,VALID,94.5829,VALID,0,VALID,23.9177,VALID,350,VALID,0.442969,
2009-08-19, 02:14:05,VALID,1005.68,VALID,0,VALID,94.6057,VALID,0,VALID,23.8982,VALID,350,VALID,0.360547,
2009-08-19, 02:15:05,VALID,1005.68,VALID,0,VALID,94.6134,VALID,0,VALID,23.8982,VALID,350,VALID,0.392969,
2009-08-19, 02:16:05,VALID,1005.68,VALID,0,VALID,94.6286,VALID,0,VALID,23.8982,VALID,350,VALID,0.469141,
2009-08-19, 02:17:05,VALID,1005.66,VALID,0,VALID,94.6515,VALID,0,VALID,23.9195,VALID,350,VALID,0.465625,
2009-08-19, 02:18:05,VALID,1005.64,VALID,0,VALID,94.6668,VALID,0,VALID,23.8575,VALID,350,VALID,0.524219,
2009-08-19, 02:19:05,VALID,1005.64,VALID,0,VALID,94.6744,VALID,0,VALID,23.8982,VALID,350,VALID,0.462891,
2009-08-19, 02:20:05,VALID,1005.61,VALID,0,VALID,94.7049,VALID,0,VALID,23.8982,VALID,350,VALID,0.428516,
2009-08-19, 02:21:05,VALID,1005.6,VALID,0,VALID,94.7202,VALID,0,VALID,23.8982,VALID,350,VALID,0.449219,
2009-08-19, 02:22:05,VALID,1005.58,VALID,0,VALID,94.7354,VALID,0,VALID,23.8982,VALID,350,VALID,0.474219,
2009-08-19, 02:23:05,VALID,1005.59,VALID,0,VALID,94.7202,VALID,0,VALID,23.8982,VALID,350,VALID,0.411719,
2009-08-19, 02:24:05,VALID,1005.59,VALID,0,VALID,94.7431,VALID,0,VALID,23.8982,VALID,350,VALID,0.43125,
2009-08-19, 02:25:05,VALID,1005.55,VALID,0,VALID,94.7431,VALID,0,VALID,23.8769,VALID,350,VALID,0.421875,
2009-08-19, 02:26:05,VALID,1005.59,VALID,0,VALID,94.7736,VALID,0,VALID,23.8769,VALID,350,VALID,0.432031,
2009-08-19, 02:27:05,VALID,1005.58,VALID,0,VALID,94.8041,VALID,0,VALID,23.8982,VALID,350,VALID,0.545703,
2009-08-19, 02:28:05,VALID,1005.58,VALID,0,VALID,94.8194,VALID,0,VALID,23.9195,VALID,350,VALID,0.510547,
2009-08-19, 02:29:05,VALID,1005.59,VALID,0,VALID,94.8194,VALID,0,VALID,23.9177,VALID,350,VALID,0.777344,
2009-08-19, 02:30:05,VALID,1005.59,VALID,0,VALID,94.8346,VALID,0,VALID,23.9177,VALID,350,VALID,0.48125,
2009-08-19, 02:31:05,VALID,1005.57,VALID,0,VALID,94.8194,VALID,0,VALID,23.8964,VALID,350,VALID,0.447656,
2009-08-19, 02:32:05,VALID,1005.56,VALID,0,VALID,94.8499,VALID,0,VALID,23.9159,VALID,350,VALID,0.537891,
2009-08-19, 02:33:05,VALID,1005.57,VALID,0,VALID,94.8422,VALID,0,VALID,23.9371,VALID,350,VALID,0.473437,
2009-08-19, 02:34:05,VALID,1005.54,VALID,0,VALID,94.8499,VALID,0,VALID,23.9371,VALID,339,VALID,0.571094,
2009-08-19, 02:35:05,VALID,1005.54,VALID,0,VALID,94.8499,VALID,0,VALID,23.9353,VALID,345,VALID,0.632031,
2009-08-19, 02:36:05,VALID,1005.55,VALID,0,VALID,94.8499,VALID,0,VALID,23.9566,VALID,348,VALID,0.562891,
2009-08-19, 02:37:05,VALID,1005.56,VALID,0,VALID,94.8422,VALID,0,VALID,23.9566,VALID,349,VALID,0.443359,
2009-08-19, 02:38:05,VALID,1005.52,VALID,0,VALID,94.8194,VALID,0,VALID,23.9566,VALID,349,VALID,0.413672,
2009-08-19, 02:39:05,VALID,1005.52,VALID,0,VALID,94.8194,VALID,0,VALID,23.9566,VALID,349,VALID,0.46875,
2009-08-19, 02:40:05,VALID,1005.52,VALID,0,VALID,94.8194,VALID,0,VALID,23.9566,VALID,349,VALID,0.574609,
2009-08-19, 02:41:05,VALID,1005.53,VALID,0,VALID,94.8346,VALID,0,VALID,23.9566,VALID,349,VALID,0.408203,
2009-08-19, 02:42:05,VALID,1005.52,VALID,0,VALID,94.8117,VALID,0,VALID,23.9566,VALID,349,VALID,0.448047,
2009-08-19, 02:43:05,VALID,1005.5,VALID,0,VALID,94.7888,VALID,0.100563,VALID,23.9548,VALID,349,VALID,0.420703,
2009-08-19, 02:44:05,VALID,1005.49,VALID,0,VALID,94.7965,VALID,0,VALID,23.9548,VALID,349,VALID,0.530078,
2009-08-19, 02:45:05,VALID,1005.47,VALID,0,VALID,94.766,VALID,0,VALID,23.9566,VALID,349,VALID,0.498828,
2009-08-19, 02:46:05,VALID,1005.44,VALID,0,VALID,94.7736,VALID,0,VALID,23.9566,VALID,349,VALID,0.539063,
2009-08-19, 02:47:05,VALID,1005.46,VALID,0,VALID,94.7736,VALID,0.100563,VALID,23.9371,VALID,349,VALID,0.514063,
2009-08-19, 02:48:05,VALID,1005.43,VALID,0,VALID,94.7507,VALID,0,VALID,23.9371,VALID,349,VALID,0.518359,
2009-08-19, 02:49:05,VALID,1005.41,VALID,0,VALID,94.766,VALID,0,VALID,23.9177,VALID,349,VALID,0.470703,
2009-08-19, 02:50:05,VALID,1005.4,VALID,0,VALID,94.7583,VALID,0,VALID,23.8964,VALID,350,VALID,0.399219,
2009-08-19, 02:51:05,VALID,1005.38,VALID,0,VALID,94.7507,VALID,0,VALID,23.8769,VALID,350,VALID,0.435937,
2009-08-19, 02:52:05,VALID,1005.42,VALID,0,VALID,94.766,VALID,0,VALID,23.8769,VALID,349,VALID,0.480859,
2009-08-19, 02:53:05,VALID,1005.36,VALID,0,VALID,94.7736,VALID,0,VALID,23.8964,VALID,349,VALID,0.515625,
2009-08-19, 02:54:05,VALID,1005.33,VALID,0,VALID,94.8041,VALID,0,VALID,23.9177,VALID,349,VALID,0.422656,
2009-08-19, 02:55:05,VALID,1005.32,VALID,0,VALID,94.8041,VALID,0,VALID,23.8769,VALID,349,VALID,0.425781,
2009-08-19, 02:56:05,VALID,1005.3,VALID,0,VALID,94.8117,VALID,0,VALID,23.8982,VALID,349,VALID,0.44375,
2009-08-19, 02:57:05,VALID,1005.29,VALID,0,VALID,94.7965,VALID,0,VALID,23.8769,VALID,349,VALID,0.439063,
2009-08-19, 02:58:05,VALID,1005.26,VALID,0,VALID,94.8422,VALID,0,VALID,23.8787,VALID,349,VALID,0.45,
2009-08-19, 02:59:05,VALID,1005.24,VALID,0,VALID,94.8422,VALID,0.100563,VALID,23.8787,VALID,350,VALID,0.515234,
2009-08-19, 03:00:05,VALID,1005.18,VALID,0,VALID,94.8499,VALID,0,VALID,23.8575,VALID,349,VALID,0.528125,
2009-08-19, 03:01:05,VALID,1005.19,VALID,0,VALID,94.8499,VALID,0.100563,VALID,23.8787,VALID,349,VALID,0.51875,
2009-08-19, 03:02:05,VALID,1005.17,VALID,0,VALID,94.8651,VALID,0,VALID,23.8787,VALID,350,VALID,0.562891,
2009-08-19, 03:03:05,VALID,1005.16,VALID,0,VALID,94.888,VALID,0,VALID,23.8982,VALID,349,VALID,0.505078,
2009-08-19, 03:04:05,VALID,1005.17,VALID,0,VALID,94.8956,VALID,0,VALID,23.8982,VALID,350,VALID,0.645703,
2009-08-19, 03:05:05,VALID,1005.14,VALID,0,VALID,94.8956,VALID,0,VALID,23.8575,VALID,349,VALID,0.481641,
2009-08-19, 03:06:05,VALID,1005.14,VALID,0,VALID,94.888,VALID,0,VALID,23.8787,VALID,349,VALID,0.402344,
2009-08-19, 03:07:05,VALID,1005.11,VALID,0,VALID,94.9033,VALID,0,VALID,23.8593,VALID,349,VALID,0.372266,
2009-08-19, 03:08:05,VALID,1005.11,VALID,0,VALID,94.888,VALID,0,VALID,23.8185,VALID,349,VALID,0.239453,
2009-08-19, 03:09:05,VALID,1005.11,VALID,0,VALID,94.8956,VALID,0,VALID,23.8185,VALID,350,VALID,0.257031,
2009-08-19, 03:10:05,VALID,1005.13,VALID,0,VALID,94.9109,VALID,0,VALID,23.8185,VALID,349,VALID,0.335938,
2009-08-19, 03:11:05,VALID,1005.08,VALID,0,VALID,94.9109,VALID,0,VALID,23.8398,VALID,350,VALID,0.151562,
2009-08-19, 03:12:05,VALID,1005.06,VALID,0,VALID,94.9185,VALID,0,VALID,23.8009,VALID,350,VALID,0.1875,
2009-08-19, 03:13:05,VALID,1005.05,VALID,0,VALID,94.9033,VALID,0,VALID,23.7796,VALID,350,VALID,0.214453,
2009-08-19, 03:14:05,VALID,1005.03,VALID,0,VALID,94.9033,VALID,0,VALID,23.7814,VALID,350,VALID,0.357031,
2009-08-19, 03:15:05,VALID,1005.02,VALID,0,VALID,94.9338,VALID,0,VALID,23.7796,VALID,350,VALID,0.351172,
2009-08-19, 03:16:05,VALID,1005.01,VALID,0,VALID,94.9262,VALID,0,VALID,23.7814,VALID,349,VALID,0.478906,
2009-08-19, 03:17:05,VALID,1004.99,VALID,0,VALID,94.9185,VALID,0.100563,VALID,23.7601,VALID,349,VALID,0.5375,
2009-08-19, 03:18:05,VALID,1005.01,VALID,0,VALID,94.9033,VALID,0,VALID,23.7212,VALID,349,VALID,0.484375,
2009-08-19, 03:19:05,VALID,1004.98,VALID,0,VALID,94.9033,VALID,0.100563,VALID,23.723,VALID,349,VALID,0.454297,
2009-08-19, 03:20:05,VALID,1005,VALID,0,VALID,94.9185,VALID,0,VALID,23.723,VALID,350,VALID,0.1875,
2009-08-19, 03:21:05,VALID,1005,VALID,0,VALID,94.9262,VALID,0,VALID,23.6823,VALID,349,VALID,0.145703,
2009-08-19, 03:22:05,VALID,1004.99,VALID,0,VALID,94.9185,VALID,0,VALID,23.6823,VALID,349,VALID,0,
2009-08-19, 03:23:05,VALID,1005.02,VALID,0,VALID,94.9185,VALID,0,VALID,23.6628,VALID,349,VALID,0,
2009-08-19, 03:24:05,VALID,1005.01,VALID,0,VALID,94.9262,VALID,0,VALID,23.6823,VALID,349,VALID,0.357031,
2009-08-19, 03:25:05,VALID,1005.02,VALID,0,VALID,94.9414,VALID,0,VALID,23.6628,VALID,349,VALID,0.00585938,
2009-08-19, 03:26:05,VALID,1005.01,VALID,0,VALID,94.9567,VALID,0,VALID,23.6628,VALID,349,VALID,0.323047,
2009-08-19, 03:27:05,VALID,1005.04,VALID,0,VALID,94.949,VALID,0,VALID,23.6239,VALID,350,VALID,0.40625,
2009-08-19, 03:28:05,VALID,1005.01,VALID,0,VALID,94.9719,VALID,0,VALID,23.6452,VALID,349,VALID,0.337109,
2009-08-19, 03:29:05,VALID,1004.99,VALID,0,VALID,94.9872,VALID,0,VALID,23.6452,VALID,349,VALID,0.421484,
2009-08-19, 03:30:05,VALID,1005.01,VALID,0,VALID,95.0024,VALID,0,VALID,23.6257,VALID,349,VALID,0.420312,
2009-08-19, 03:31:05,VALID,1004.98,VALID,0,VALID,95.0024,VALID,0,VALID,23.6452,VALID,349,VALID,0.519141,
2009-08-19, 03:32:05,VALID,1004.95,VALID,0,VALID,95.0177,VALID,0,VALID,23.6452,VALID,350,VALID,0.435937,
2009-08-19, 03:33:05,VALID,1004.95,VALID,0,VALID,95.0177,VALID,0,VALID,23.6257,VALID,349,VALID,0.369141,
2009-08-19, 03:34:05,VALID,1004.94,VALID,0,VALID,95.0024,VALID,0,VALID,23.6044,VALID,349,VALID,0.274219,
2009-08-19, 03:35:05,VALID,1004.91,VALID,0,VALID,95.0177,VALID,0.100563,VALID,23.6044,VALID,350,VALID,0.244141,
2009-08-19, 03:36:05,VALID,1004.92,VALID,0,VALID,95.0177,VALID,0,VALID,23.5655,VALID,350,VALID,0.298438,
2009-08-19, 03:37:05,VALID,1004.88,VALID,0,VALID,95.0177,VALID,0.100563,VALID,23.5655,VALID,349,VALID,0.329688,
2009-08-19, 03:38:05,VALID,1004.89,VALID,0,VALID,95.0253,VALID,0,VALID,23.5655,VALID,349,VALID,0.273047,
2009-08-19, 03:39:05,VALID,1004.89,VALID,0,VALID,95.0482,VALID,0,VALID,23.5868,VALID,349,VALID,0.381641,
2009-08-19, 03:40:05,VALID,1004.87,VALID,0,VALID,95.0482,VALID,0.100563,VALID,23.585,VALID,349,VALID,0.416016,
2009-08-19, 03:41:05,VALID,1004.89,VALID,0,VALID,95.0711,VALID,0,VALID,23.5655,VALID,349,VALID,0.426172,
2009-08-19, 03:42:05,VALID,1004.87,VALID,0,VALID,95.0711,VALID,0,VALID,23.546,VALID,350,VALID,0.308984,
2009-08-19, 03:43:05,VALID,1004.89,VALID,0,VALID,95.094,VALID,0.100563,VALID,23.546,VALID,349,VALID,0.280469,
2009-08-19, 03:44:05,VALID,1004.9,VALID,0,VALID,95.0787,VALID,0,VALID,23.5266,VALID,350,VALID,0.324219,
2009-08-19, 03:45:05,VALID,1004.91,VALID,0,VALID,95.0787,VALID,0,VALID,23.5284,VALID,350,VALID,0.329688,
2009-08-19, 03:46:05,VALID,1004.94,VALID,0,VALID,95.0787,VALID,0,VALID,23.5089,VALID,349,VALID,0.417578,
2009-08-19, 03:47:05,VALID,1004.95,VALID,0,VALID,95.0864,VALID,0,VALID,23.5089,VALID,350,VALID,0.425781,
2009-08-19, 03:48:05,VALID,1004.97,VALID,0,VALID,95.094,VALID,0,VALID,23.4487,VALID,350,VALID,0.392188,
2009-08-19, 03:49:05,VALID,1004.99,VALID,0,VALID,95.0864,VALID,0.100563,VALID,23.4487,VALID,350,VALID,0.199219,
2009-08-19, 03:50:05,VALID,1004.95,VALID,0,VALID,95.0864,VALID,0.100563,VALID,23.4505,VALID,349,VALID,0.257813,
2009-08-19, 03:51:05,VALID,1004.95,VALID,0,VALID,95.1093,VALID,0,VALID,23.4487,VALID,350,VALID,0.340234,